FW5255 Weather Reports


time (UTC)temp
C
wind
direction
speed
KPH
gust
KPH
rain 1hr
cm
rain 24hr
cm
rain mn
cm
humidity
%
barometer
mb
20260505082015 16 270 0.0 0.0 0.00 0.00 0.00 77 1010.9
20260505081512 16 276 0.0 0.0 0.00 0.00 0.00 77 1011.3
20260505081009 16 258 0.0 0.0 0.00 0.00 0.00 78 1010.7
20260505080505 16 256 0.0 0.0 0.00 0.00 0.00 78 1010.9
20260505080001 16 260 0.0 0.0 0.00 0.00 0.00 78 1010.8
20260505075458 16 260 0.0 0.0 0.00 0.00 0.00 78 1011.0
20260505074955 16 274 0.0 0.0 0.00 0.00 0.00 78 1010.9
20260505074452 16 274 0.0 0.0 0.00 0.00 0.00 77 1011.1
20260505073949 16 274 0.0 0.0 0.00 0.00 0.00 78 1011.1
20260505073447 16 272 0.0 0.0 0.00 0.00 0.00 78 1011.0
20260505072944 16 272 0.0 0.0 0.00 0.00 0.00 78 1011.1
20260505072440 16 272 0.0 0.0 0.00 0.00 0.00 77 1011.0
20260505071936 16 272 0.0 0.0 0.00 0.00 0.00 78 1011.0
20260505071432 16 270 0.0 0.0 0.00 0.00 0.00 77 1010.9
20260505070931 16 271 0.0 0.0 0.00 0.00 0.00 77 1010.8
20260505070427 16 272 0.0 0.0 0.00 0.00 0.00 77 1010.8
20260505065922 16 277 0.0 0.0 0.00 0.00 0.00 77 1010.9
20260505065419 16 278 0.0 0.0 0.00 0.00 0.00 76 1010.8
20260505064916 16 283 0.0 0.0 0.00 0.00 0.00 76 1010.8
20260505064413 16 336 0.0 0.0 0.00 0.00 0.00 75 1010.8
20260505063912 16 267 0.0 0.0 0.00 0.00 0.00 75 1010.7
20260505063407 16 267 0.0 0.0 0.00 0.00 0.00 75 1010.8
20260505062904 16 267 0.0 0.0 0.00 0.00 0.00 75 1010.7
20260505062401 16 266 0.0 0.0 0.00 0.00 0.00 74 1011.0
20260505061858 16 266 0.0 0.0 0.00 0.00 0.00 74 1010.8
20260505061356 16 266 0.0 0.0 0.00 0.00 0.00 74 1011.0
20260505060854 16 265 0.0 0.0 0.00 0.00 0.00 74 1010.8
20260505060350 16 266 0.0 0.0 0.00 0.00 0.00 73 1010.9
20260505055846 16 214 0.0 0.0 0.00 0.00 0.00 74 1011.0
20260505055342 16 214 0.0 0.0 0.00 0.00 0.00 73 1010.8
20260505054840 16 212 0.0 0.0 0.00 0.00 0.00 73 1010.9
20260505054337 16 224 0.0 0.0 0.00 0.00 0.00 73 1010.9
20260505053835 16 228 0.0 0.0 0.00 0.00 0.00 73 1011.1
20260505053332 16 144 0.0 0.0 0.00 0.00 0.00 74 1011.0
20260505052828 16 144 0.0 0.0 0.00 0.00 0.00 74 1011.1
20260505052325 15 144 0.0 0.0 0.00 0.00 0.00 74 1011.1
20260505051823 15 144 0.0 0.0 0.00 0.00 0.00 74 1011.1
20260505051320 15 144 0.0 0.0 0.00 0.00 0.00 75 1011.1
20260505050818 15 144 0.0 0.0 0.00 0.00 0.00 75 1010.9
20260505050317 15 144 0.0 0.0 0.00 0.00 0.00 74 1010.9
20260505041746 15 144 0.0 0.0 0.00 0.00 0.00 73 1011.2
20260505041243 16 144 0.0 0.0 0.00 0.00 0.00 73 1011.1
20260505040741 16 144 0.0 0.0 0.00 0.00 0.00 73 1011.3
20260505040238 16 145 0.0 0.0 0.00 0.00 0.00 73 1011.1
20260505035735 16 145 0.0 0.0 0.00 0.00 0.00 73 1011.2
20260505035230 16 145 0.0 0.0 0.00 0.00 0.00 73 1011.4
20260505034728 16 145 0.0 0.0 0.00 0.00 0.00 72 1011.3
20260505034224 16 145 0.0 0.0 0.00 0.00 0.00 72 1011.3
20260505033721 16 146 0.0 0.0 0.00 0.00 0.00 72 1011.2
20260505033219 16 146 0.0 0.0 0.00 0.00 0.00 72 1010.9
20260505032716 16 146 0.0 0.0 0.00 0.00 0.00 71 1011.1
20260505032207 16 146 0.0 0.0 0.00 0.00 0.00 71 1011.0
20260505031704 16 146 0.0 0.0 0.00 0.00 0.00 71 1011.0
20260505031200 16 146 0.0 0.0 0.00 0.00 0.00 71 1011.1
20260505030657 16 146 0.0 0.0 0.00 0.00 0.00 71 1011.1
20260505030152 16 146 0.0 0.0 0.00 0.00 0.00 70 1011.2
20260505025649 16 146 0.0 0.0 0.00 0.00 0.00 69 1011.2
20260505025148 16 148 0.0 0.0 0.00 0.00 0.00 68 1011.1
20260505024645 16 148 0.0 0.0 0.00 0.00 0.00 68 1011.3
20260505024142 16 143 0.0 0.0 0.00 0.00 0.00 67 1011.4
20260505023639 16 143 0.0 0.0 0.00 0.00 0.00 67 1011.4
20260505023137 16 143 0.0 0.0 0.00 0.00 0.00 66 1011.4
20260505022634 16 143 0.0 0.0 0.00 0.00 0.00 64 1011.2
20260505022131 16 146 0.0 0.0 0.00 0.00 0.00 63 1011.3
20260505021627 16 148 0.0 0.0 0.00 0.00 0.00 63 1011.5
20260505021124 16 148 0.0 0.0 0.00 0.00 0.00 62 1011.3
20260505020614 16 97 0.0 0.0 0.00 0.00 0.00 61 1011.3
20260505020111 16 143 0.0 0.0 0.00 0.00 0.00 60 1011.3
20260505015608 16 142 0.0 0.0 0.00 0.00 0.00 59 1011.3
20260505015104 17 153 0.0 0.0 0.00 0.00 0.00 58 1011.3
20260505014601 17 153 0.0 0.0 0.00 0.00 0.00 58 1011.2
20260505014058 17 153 0.0 0.0 0.00 0.00 0.00 57 1011.3
20260505013555 17 154 0.0 0.0 0.00 0.00 0.00 59 1011.5
20260505013053 17 155 0.0 0.0 0.00 0.00 0.00 57 1011.2
20260505012550 17 156 0.0 0.0 0.00 0.00 0.00 56 1011.3
20260505012047 17 170 0.0 0.0 0.00 0.00 0.00 56 1011.3
20260505011543 17 174 0.0 0.0 0.00 0.00 0.00 55 1011.4
20260505011040 17 174 0.0 0.0 0.00 0.00 0.00 56 1011.1
20260505010535 17 180 0.0 0.0 0.00 0.00 0.00 54 1010.9
20260505010032 17 181 0.0 0.0 0.00 0.00 0.00 53 1010.8
20260505005528 17 182 0.0 0.0 0.00 0.00 0.00 53 1010.9
20260505005027 18 182 0.0 0.0 0.00 0.00 0.00 53 1010.7
20260505004523 17 185 0.0 0.0 0.00 0.00 0.00 53 1010.9
20260505004019 17 186 0.0 0.0 0.00 0.00 0.00 53 1010.7
20260505003517 18 186 0.0 0.0 0.00 0.00 0.00 53 1010.7
20260505003014 18 190 0.0 0.0 0.00 0.00 0.00 53 1010.8
20260505002509 18 205 0.0 0.0 0.00 0.00 0.00 53 1010.7
20260505002009 18 260 0.0 0.0 0.00 0.00 0.00 52 1010.5
20260505001506 18 283 0.0 0.0 0.00 0.00 0.00 52 1010.7
20260505001003 18 283 0.0 0.0 0.00 0.00 0.00 50 1010.6
20260505000500 18 283 0.0 0.0 0.00 0.00 0.00 49 1010.6
20260504235956 19 283 0.0 0.0 0.00 0.00 0.00 48 1010.3
20260504235454 19 283 0.0 0.0 0.00 0.00 0.00 48 1010.6
20260504234950 20 283 0.0 0.0 0.00 0.00 0.00 48 1010.4
20260504234448 20 283 0.0 0.0 0.00 0.00 0.00 48 1010.4
20260504233944 20 283 0.0 0.0 0.00 0.00 0.00 46 1010.4
20260504233439 20 283 0.0 0.0 0.00 0.00 0.00 45 1010.3
20260504232937 20 311 0.0 0.0 0.00 0.00 0.00 45 1010.5
20260504232434 20 299 0.0 0.0 0.00 0.00 0.00 44 1010.3
20260504231932 20 251 0.0 0.0 0.00 0.00 0.00 44 1010.1
20260504231427 21 250 0.0 0.0 0.00 0.00 0.00 43 1010.3
20260504230924 21 277 0.0 0.0 0.00 0.00 0.00 43 1010.1
20260504230420 21 290 0.0 0.0 0.00 0.00 0.00 44 1010.2
20260504225920 21 235 0.0 0.0 0.00 0.00 0.00 40 1010.4
20260504225416 21 265 0.0 0.0 0.00 0.00 0.00 40 1010.3
20260504224914 21 268 0.0 0.0 0.00 0.00 0.00 41 1010.2
20260504224410 21 275 0.0 0.0 0.00 0.00 0.00 39 1010.2
20260504223907 21 278 0.0 0.0 0.00 0.00 0.00 40 1010.0
20260504223402 21 276 0.0 0.0 0.00 0.00 0.00 39 1010.2
20260504222859 21 328 0.0 0.0 0.00 0.00 0.00 38 1010.0
20260504222356 21 281 0.0 0.0 0.00 0.00 0.00 41 1010.3
20260504221854 21 277 0.0 0.0 0.00 0.00 0.00 39 1010.2
20260504221350 21 274 0.0 0.0 0.00 0.00 0.00 40 1010.1
20260504220848 22 197 0.0 0.0 0.00 0.00 0.00 40 1010.3
20260504220344 22 237 0.0 0.0 0.00 0.00 0.00 38 1010.6
20260504215842 22 269 0.0 0.0 0.00 0.00 0.00 39 1010.4
20260504215338 22 191 0.0 0.0 0.00 0.00 0.00 38 1010.3
20260504214834 22 279 0.0 0.0 0.00 0.00 0.00 39 1010.3
20260504214331 22 239 0.0 0.0 0.00 0.00 0.00 36 1010.4
20260504213828 22 290 0.0 0.0 0.00 0.00 0.00 37 1010.3
20260504213324 22 285 0.0 0.0 0.00 0.00 0.00 39 1010.3
20260504212821 22 269 0.0 0.0 0.00 0.00 0.00 37 1010.3
20260504212317 22 283 0.0 0.0 0.00 0.00 0.00 39 1010.6
20260504211815 22 56 0.0 1.6 0.00 0.00 0.00 36 1010.1
20260504211311 22 278 0.0 0.0 0.00 0.00 0.00 38 1010.5
20260504210809 22 248 0.0 0.0 0.00 0.00 0.00 37 1010.4
20260504210305 22 188 0.0 1.6 0.00 0.00 0.00 37 1010.3
20260504205803 22 287 0.0 0.0 0.00 0.00 0.00 36 1010.4
20260504205300 22 315 0.0 0.0 0.00 0.00 0.00 36 1010.5
20260504204758 23 267 0.0 0.0 0.00 0.00 0.00 35 1010.1
20260504204256 22 47 0.0 0.0 0.00 0.00 0.00 36 1010.6
20260504203755 22 316 0.0 0.0 0.00 0.00 0.00 37 1010.4
20260504203252 22 301 0.0 0.0 0.00 0.00 0.00 35 1010.3
20260504202747 22 274 0.0 0.0 0.00 0.00 0.00 36 1010.2
20260504202245 22 328 0.0 0.0 0.00 0.00 0.00 36 1010.4
20260504201741 22 177 0.0 0.0 0.00 0.00 0.00 36 1010.6
20260504201238 22 190 0.0 0.0 0.00 0.00 0.00 36 1010.3
20260504200736 22 320 0.0 0.0 0.00 0.00 0.00 35 1010.4
20260504200232 22 285 0.0 0.0 0.00 0.00 0.00 37 1010.5
20260504195729 23 257 0.0 0.0 0.00 0.00 0.00 37 1010.5
20260504195225 23 283 0.0 0.0 0.00 0.00 0.00 37 1010.6
20260504194722 23 221 0.0 0.0 0.00 0.00 0.00 35 1011.0
20260504194218 22 270 0.0 0.0 0.00 0.00 0.00 36 1010.7
20260504193714 23 287 0.0 0.0 0.00 0.00 0.00 36 1010.7
20260504193212 23 275 0.0 0.0 0.00 0.00 0.00 37 1010.9
20260504192710 23 269 0.0 0.0 0.00 0.00 0.00 33 1010.9
20260504192208 23 281 0.0 0.0 0.00 0.00 0.00 34 1010.9
20260504191706 23 296 0.0 0.0 0.00 0.00 0.00 37 1011.1
20260504191203 23 280 0.0 0.0 0.00 0.00 0.00 33 1011.0
20260504190658 23 265 0.0 0.0 0.00 0.00 0.00 34 1011.2
20260504190155 23 277 0.0 0.0 0.00 0.00 0.00 34 1011.5
20260504185651 23 269 0.0 0.0 0.00 0.00 0.00 33 1011.3
20260504185147 23 303 0.0 0.0 0.00 0.00 0.00 35 1011.3
20260504184643 23 280 0.0 0.0 0.00 0.00 0.00 36 1011.3
20260504184133 22 302 0.0 0.0 0.00 0.00 0.00 35 1011.6
20260504183630 22 298 0.0 0.0 0.00 0.00 0.00 35 1011.6
20260504183128 22 282 0.0 0.0 0.00 0.00 0.00 34 1011.9
20260504182625 22 332 0.0 0.0 0.00 0.00 0.00 34 1011.9
20260504182123 23 331 0.0 0.0 0.00 0.00 0.00 34 1011.9
20260504181620 23 262 0.0 0.0 0.00 0.00 0.00 37 1011.9
20260504181117 23 239 0.0 0.0 0.00 0.00 0.00 39 1012.2
20260504180617 23 87 0.0 0.0 0.00 0.00 0.00 34 1012.0
20260504180115 23 267 0.0 0.0 0.00 0.00 0.00 37 1012.2
20260504175612 22 303 0.0 0.0 0.00 0.00 0.00 40 1012.3
20260504175108 22 287 0.0 0.0 0.00 0.00 0.00 40 1012.4
20260504174607 22 274 0.0 0.0 0.00 0.00 0.00 36 1012.5
20260504174103 22 320 0.0 0.0 0.00 0.00 0.00 37 1012.5
20260504173600 22 39 0.0 0.0 0.00 0.00 0.00 36 1012.7
20260504173058 22 283 0.0 0.0 0.00 0.00 0.00 37 1012.8
20260504172553 22 167 0.0 0.0 0.00 0.00 0.00 38 1012.6
20260504172050 22 291 0.0 0.0 0.00 0.00 0.00 38 1012.9
20260504171547 21 271 0.0 0.0 0.00 0.00 0.00 37 1012.7
20260504171044 21 260 0.0 0.0 0.00 0.00 0.00 35 1013.0
20260504170539 21 244 0.0 0.0 0.00 0.00 0.00 36 1013.0
20260504150918 18 274 0.0 0.0 0.00 0.00 0.00 51 1014.1
20260504150415 18 316 0.0 0.0 0.00 0.00 0.00 48 1014.3
20260504140841 17 258 0.0 0.0 0.00 0.00 0.00 58 1014.5
20260504140337 16 279 0.0 0.0 0.00 0.00 0.00 59 1014.2
20260504130806 15 318 0.0 0.0 0.00 0.00 0.00 64 1014.9
20260504130302 15 224 0.0 0.0 0.00 0.00 0.00 67 1014.9
20260504120225 11 304 0.0 0.0 0.00 0.00 0.00 79 1015.2
20260504110653 8 278 0.0 0.0 0.00 0.00 0.00 84 1015.7
20260504110149 8 278 0.0 0.0 0.00 0.00 0.00 84 1015.7
20260504100615 8 278 0.0 0.0 0.00 0.00 0.00 79 1015.7
20260504100113 8 278 0.0 0.0 0.00 0.00 0.00 79 1015.7